sat.trackr.live / text

‹ back to catalog

JILIN-1 GAOFEN 03D08

NORAD 54251 · 2022-155A

PAYLOAD ACTIVE UNKNOWN

§ Identity

Operator
Country
PRC
Launch date
2022-11-16
Launch site
JSC
Launch vehicle
Mass (kg)
RCS (m²)

External: N2YO · Heavens-Above · Gunter

§ Orbital elements

Epoch: 2026-09-20T22:46:43.783104Z

Period
91.32 min
Inclination
97.6307°
Eccentricity
0.0002278
Mean motion
15.76843683 rev/d
Perigee alt
337.9 km
Apogee alt
340.9 km
Semi-major
6,717.5 km
B*
5.0410e-4
RAAN
57.9614°
Arg perigee
334.1832°
Mean anomaly
25.9319°
Rev number
21,484

§ Raw data

JILIN-1 GAOFEN 03D081 54251U 22155A   26263.94911786  .00081459  00000+0  50410-3 0  99952 54251  97.6307  57.9614 0002278 334.1832  25.9319 15.76843683214845

JSON: /api/v1/satellites/54251 · /tle

For live sub-satellite position, see the globe view (requires WebGL).

§ Visibility from observer

Set your observer location to see the next 7 days of passes ≥ 10°. The values pass through the URL so the page stays shareable.

No JS? Fill the form by hand. The geolocation button needs JavaScript.